Simultaneous Nadir Overpasses (SNOs) Predictions

Prediction of SNOs between METOP-A and TERRA Satellite Orbit:

Table of predicted SNOs for the next 14.0 days since TLE Epoch: 9/14/2014
Index Date (METOP-A) Time (METOP-A) Lat,Lon (METOP-A) SZA (METOP-A ) Date (TERRA) Time (TERRA) Lat,Lon (TERRA) SZA (TERRA ) Distance(km) Time Diff (sec)
1 09/16/2014 23:58:47 81.29,-132.79 81.82 09/16/2014 23:59:30 81.28,-132.98 81.82 3.16 43
2 09/17/2014 00:49:27 -81.29, 34.76 98.14 09/17/2014 00:48:57 -81.28, 34.59 98.18 3.16 30
3 09/19/2014 19:33:09 81.28, -66.58 82.91 09/19/2014 19:33:42 81.28, -66.64 82.92 1.05 33
4 09/19/2014 20:23:48 -81.29, 101.37 97.00 09/19/2014 20:23:08 -81.30, 101.34 97.02 0.75 40
5 09/22/2014 15:07:31 81.29, -0.03 84.04 09/22/2014 15:07:54 81.28, -0.13 84.04 1.74 23
6 09/22/2014 15:58:11 -81.29, 167.53 95.92 09/22/2014 15:57:21 -81.28, 167.49 95.95 1.08 50
7 09/25/2014 10:41:53 81.29, 66.46 85.17 09/25/2014 10:42:05 81.29, 66.53 85.19 1.34 12
8 09/25/2014 11:32:33 -81.29,-125.97 94.79 09/25/2014 11:31:32 -81.29,-125.82 94.80 2.54 61




NCC Satellite Simultaneous Nadir Overpasses (SNOs) Prediction Service
